Regional Weather Roundup
Issued by NWS

Home | Current Version | Previous Version | Text Only | Print | Product List | Glossary On
Versions: 1 2 3 4 5 6 7 8 9 10 11 12 13 14 15 16 17 18 19 20 21 22 23 24 25 26 27 28 29 30 31 32 33 34 35 36 37 38 39 40 41 42 43 44 45 46 47 48 49 50
000
ASUS43 KOAX 261510
RWRNE

WEATHER ROUNDUP FOR NEBRASKA
NATIONAL WEATHER SERVICE OMAHA NE
900 AM CST THU FEB 26 2015

NOTES: SATELLITE DATA IS BEING USED TO AUGMENT CLOUD COVER ABOVE
       12000 FEET.
       "FAIR" INDICATES FEW OR NO CLOUDS BELOW 12,000 FEET WITH NO
       SIGNIFICANT WEATHER AND/OR OBSTRUCTIONS TO VISIBILITY.

  * THESE STATIONS DO NOT REPORT WEATHER SUCH AS RAIN...SNOW OR FOG.

NEZ001>004-019>022-054>056-261600-
NEBRASKA PANHANDLE

CITY           SKY/WX    TMP DP  RH WIND       PRES   REMARKS
SCOTTSBLUFF    CLOUDY    10   3  73 NE12      30.30R WCI  -5
ALLIANCE       CLOUDY     8   1  73 N12       30.30R WCI  -7
CHADRON        CLOUDY     7   0  73 NE10      30.38R HAZE    WCI  -8
KIMBALL        LGT SNOW   9   6  84 N9        30.20R WCI  -4
SIDNEY         LGT SNOW  11   4  73 NE6       30.26R WCI   1
$$

NEZ057>060-069>072-079>082-261600-
SOUTHWEST NEBRASKA

CITY           SKY/WX    TMP DP  RH WIND       PRES   REMARKS
NORTH PLATTE   SUNNY      7  -2  66 N12       30.40R WCI  -8
IMPERIAL       SUNNY     12   0  58 NE15      30.35R WCI  -4
LEXINGTON      SUNNY      9   2  72 N18       30.42R WCI  -9
MCCOOK         SUNNY     14   1  56 N18       30.40R WCI  -3
OGALLALA       CLOUDY    12   4  70 NE8       30.35R WCI   1
$$

NEZ005>010-023>029-035>040-094-261600-
NORTH CENTRAL NEBRASKA

CITY           SKY/WX    TMP DP  RH WIND       PRES   REMARKS
VALENTINE      MOSUNNY    2  -4  76 N9        30.43R WCI -13
AINSWORTH      SUNNY      1  -4  77 N10       30.43R WCI -15
BROKEN BOW     SUNNY      6  -2  69 N16G26    30.42R WCI -12
O`NEILL        SUNNY      0  -4  80 N13G20    30.47R WCI -18
ORD            MOSUNNY    3  -6  66 NW16      30.45R WCI -16
THEDFORD       SUNNY      5  -1  77 N9        30.40R WCI  -9
$$

NEZ041-046>049-061>064-073>077-083>087-261600-
SOUTH CENTRAL NEBRASKA

CITY           SKY/WX    TMP DP  RH WIND       PRES   REMARKS
GRAND ISLAND   MOSUNNY    4  -6  63 N18       30.48R WCI -16
AURORA         SUNNY      4  -5  66 N20G25    30.46R WCI -16
HASTINGS       SUNNY      5  -5  63 N22       30.44R WCI -16
HEBRON         SUNNY      6  -5  61 N15G23    30.49R WCI -12
HOLDREGE       SUNNY      8  -1  66 N16       30.42R WCI -10
KEARNEY *      MOSUNNY    7   0  72 N17       30.44R WCI -12
YORK           SUNNY      5  -2  72 N18G26    30.47R WCI -15
$$

NEZ011>018-030>034-042>045-261600-
NORTHEAST NEBRASKA

CITY           SKY/WX    TMP DP  RH WIND       PRES   REMARKS
NORFOLK        SUNNY      1  -7  68 NW16      30.48R WCI -19
ALBION         SUNNY      2  -6  70 N13G20    30.47R WCI -16
BLAIR          SUNNY      2  -6  68 N13       30.46R WCI -15
COLUMBUS *     SUNNY      1 -11  55 N18       30.49R WCI -19
FREMONT        SUNNY      3  -5  69 NW17G23   30.49R WCI -17
TEKAMAH        SUNNY      2  -7  66 N17       30.52R WCI -18
WAYNE          SUNNY      0  -7  72 N17       30.49R WCI -20
$$

NEZ050>053-065>068-078-088>093-261600-
SOUTHEAST NEBRASKA

CITY           SKY/WX    TMP DP  RH WIND       PRES   REMARKS
LINCOLN        SUNNY      4  -5  66 N18       30.51R WCI -16
OMAHA EPPLEY   MOSUNNY    3  -4  72 N21       30.50R WCI -18
BEATRICE       MOSUNNY    6  -3  66 N20       30.47S WCI -14
FALLS CITY     SUNNY      7  -3  64 NW14G23   30.46R WCI -10
NEBRASKA CITY  SUNNY      4  -5  65 N17       30.47R WCI -15
PLATTSMOUTH    MOSUNNY    3  -5  69 N14G21    30.47R WCI -15
$$

NEZ044-045-051>053-067-261600-
OMAHA AREA

CITY           SKY/WX    TMP DP  RH WIND       PRES   REMARKS
OMAHA EPPLEY   MOSUNNY    3  -4  72 N21       30.50R WCI -18
BLAIR          SUNNY      2  -6  68 N13       30.46R WCI -15
FREMONT        SUNNY      3  -5  69 NW17G23   30.49R WCI -17
MILLARD        SUNNY      3  -5  68 N13G20    30.50R WCI -14
OFFUTT AFB     MOSUNNY    4  -5  68 NW10      30.49R WCI -12
PLATTSMOUTH    MOSUNNY    3  -5  69 N14G21    30.47R WCI -15
WAHOO          FAIR       3  -5  68 MISG      30.49R
$$


USA.gov is the U.S. government's official web portal to all federal, state and local government web resources and services.